Dewpoint
60 58 56 57 53 51 46 44 32 38 33 29 30 30 26 29 28 30 28 26 22 22 26 31 26 27 25 26 26 28 30 28 29 26 33 46 50 54 58 62 61 62 65 66 67 68 70 69 71 71 71 71 70 70 70 70 70 70 70 70 71 70 70 70 70 70 70 69 69 69 69 69 69 69 69 69 69 69 69 70 70 70 69 69 69 69 69 69 68 68 67 68 67 66 66 66 66
60 55 55 54 53 48 43 40 35 32 31 27 26 29 29 32 25 28 28 27 24 28 26 29 30 31 35 33 32 30 29 29 30 27 37 42 47 53 55 60 60 62 65 66 67 68 69 69 70 71 70 70 70 70 70 71 70 70 70 70 70 71 70 70 70 70 70 69 69 69 69 69 69 69 69 68 68 69 69 68 68 69 69 69 69 69 68 68 68 67 66 67 66 65 65 65 64
56 54 53 53 51 46 44 39 31 27 28 22 23 27 30 26 25 26 28 28 23 22 25 30 31 30 32 32 27 28 29 33 38 41 40 48 53 54 57 60 61 63 65 66 67 68 69 70 69 70 70 69 70 70 70 70 70 70 70 70 70 70 70 70 70 70 69 69 69 69 69 69 69 68 68 67 67 67 68 68 68 68 69 69 69 68 68 67 66 66 66 65 65 64 64 63 62
56 55 51 52 48 43 40 36 32 29 28 24 21 23 27 28 26 27 26 26 26 22 27 31 31 32 31 27 28 29 29 30 35 41 39 45 51 56 58 60 61 63 65 65 67 68 68 68 69 70 70 69 70 69 70 70 70 70 70 70 70 70 70 69 69 69 69 69 69 69 69 69 68 67 67 66 66 65 66 67 67 67 68 67 67 67 67 66 65 65 64 64 63 63 62 61 61
54 55 52 48 46 41 37 35 33 28 24 27 18 21 29 30 27 29 27 26 28 26 27 29 29 29 32 31 29 31 27 33 33 43 43 49 52 54 60 60 62 63 64 65 66 67 68 68 69 70 70 69 70 69 70 70 70 70 70 70 70 70 70 69 69 69 69 69 69 69 69 68 67 66 66 65 65 64 65 66 66 66 66 66 66 66 65 65 64 64 63 63 62 62 61 60 60
49 50 49 50 40 44 33 31 32 27 25 25 26 21 28 30 29 28 28 28 28 28 26 27 26 25 23 27 28 27 34 25 38 44 48 45 50 56 60 61 62 63 64 64 64 66 67 67 69 70 70 69 69 69 70 70 70 70 70 70 70 70 69 69 69 69 68 68 69 68 68 67 67 66 65 64 63 63 64 63 63 64 65 64 65 65 64 63 63 63 62 62 61 61 60 60 59
50 46 45 42 38 40 34 30 29 29 28 25 26 25 25 26 28 28 26 26 29 28 27 27 25 26 24 24 23 29 36 43 40 42 50 49 52 58 60 61 62 62 63 62 63 64 65 66 69 69 69 70 68 69 70 70 70 70 70 70 70 70 70 70 69 69 68 68 67 67 67 66 66 65 64 63 62 63 63 63 63 63 63 63 63 63 62 62 62 62 61 61 60 60 59 58 58
51 45 44 37 34 34 32 32 32 31 31 27 29 30 30 31 30 27 27 26 26 26 27 25 27 24 21 24 23 24 34 39 44 46 45 47 55 58 60 61 62 62 62 61 62 62 63 66 68 69 69 70 69 69 69 69 69 70 69 70 70 69 69 68 68 68 67 67 66 66 66 66 64 64 63 62 61 62 63 63 63 63 62 63 63 62 61 61 61 61 61 60 60 59 58 57 57
43 43 41 38 33 31 29 30 31 32 32 33 31 35 41 37 34 31 30 28 26 25 25 24 26 23 21 22 24 31 27 38 43 47 51 51 56 58 59 60 61 62 61 60 60 61 63 65 67 68 68 69 69 69 68 68 69 69 69 69 69 68 68 68 67 67 67 66 65 64 64 64 63 62 62 60 61 61 62 62 62 62 61 62 62 61 60 60 61 61 60 60 59 59 57 57 57
42 39 36 34 33 28 26 25 27 26 29 31 31 26 26 28 28 32 29 27 27 25 24 25 25 20 22 20 22 25 25 40 44 46 48 50 54 58 59 60 61 61 60 59 59 60 61 62 65 67 68 68 69 68 68 68 68 68 68 67 67 67 67 67 65 65 65 65 64 63 63 63 63 62 61 60 62 61 60 61 61 60 61 61 61 61 60 61 61 60 59 59 58 58 58 57 56
37 39 38 33 28 26 25 23 23 24 25 27 30 30 30 30 29 28 28 27 26 25 24 25 26 22 23 23 24 31 37 38 43 42 46 50 54 58 59 58 59 60 60 59 59 59 60 63 62 65 66 67 67 68 68 68 68 67 67 67 66 67 66 67 65 65 65 64 64 63 62 63 62 61 60 60 60 60 59 60 60 60 60 60 61 60 60 60 60 60 60 59 58 57 57 56 55
35 37 36 29 27 26 25 24 25 26 29 30 26 27 24 30 29 28 26 27 27 25 24 26 26 25 25 24 30 29 30 32 43 46 47 50 54 57 58 57 57 58 59 58 58 58 59 61 63 63 63 64 66 67 67 67 67 66 67 67 66 67 66 65 66 65 64 64 63 64 63 62 61 60 59 59 59 58 59 60 60 61 61 61 60 60 60 60 59 59 58 58 57 57 56 55 54
36 36 30 28 27 27 30 28 29 36 30 26 25 26 27 27 26 26 26 28 24 24 23 24 26 28 23 26 33 28 26 38 41 44 49 51 53 55 56 56 56 56 56 57 57 58 58 59 62 63 64 62 62 63 64 65 66 66 67 67 67 66 66 66 65 65 63 62 62 61 62 61 61 59 59 58 59 59 59 59 60 60 60 59 59 60 60 59 59 58 58 58 57 56 56 54 53
38 35 29 26 29 28 28 29 29 27 25 27 26 25 25 27 27 26 24 26 23 23 25 24 27 24 24 24 27 26 26 33 42 48 49 49 52 54 55 55 55 55 56 56 57 57 58 58 60 62 63 64 64 63 62 63 64 65 66 66 66 65 65 66 65 64 63 63 62 62 62 61 60 59 59 58 59 59 59 59 59 59 59 59 59 59 59 58 57 58 58 57 57 56 55 54 53
37 37 34 31 29 27 29 27 29 26 22 27 24 23 22 30 25 25 24 29 22 24 28 26 29 24 19 20 21 28 29 33 45 45 47 49 51 52 53 53 53 54 54 54 56 56 56 58 59 61 61 63 63 64 64 64 62 63 64 65 65 65 65 65 64 63 63 63 62 61 61 60 59 59 59 59 59 60 60 59 58 58 58 59 59 58 58 57 58 58 57 57 56 55 54 53 52
39 35 33 31 29 27 27 27 25 25 23 22 25 24 22 21 23 23 22 24 27 30 25 22 29 21 24 22 26 27 28 42 43 45 47 49 50 50 51 52 52 53 53 54 54 55 56 57 58 59 61 61 61 62 62 62 62 61 62 63 64 64 64 64 63 62 61 61 60 60 59 59 58 59 58 58 60 60 60 58 60 59 60 59 58 58 57 57 57 57 57 56 56 55 54 52 51
39 37 29 26 24 24 26 27 24 23 27 28 28 24 26 21 24 23 24 24 22 21 25 23 25 30 23 23 28 29 35 44 44 45 47 47 49 50 51 51 52 52 52 52 53 54 55 56 57 58 59 59 60 60 60 60 61 60 61 61 61 62 62 62 62 60 59 58 58 57 57 59 59 59 59 59 57 59 56 56 59 59 59 58 57 57 57 56 56 55 55 55 54 54 52 51 50
39 33 29 27 26 24 28 24 24 25 24 20 23 22 22 21 23 24 22 21 22 21 22 23 23 24 25 26 36 39 41 42 42 45 46 47 48 49 50 52 52 53 54 52 52 53 53 54 56 57 57 58 58 58 58 58 59 60 61 62 62 62 60 59 61 62 57 60 56 57 56 55 54 54 55 55 56 56 56 56 57 58 58 57 57 56 56 55 54 53 52 50 48 47 43 39 42
35 31 28 25 26 26 28 25 24 20 20 21 22 22 23 22 23 22 22 21 21 20 21 21 20 21 22 23 32 39 41 41 42 44 45 46 46 47 49 50 51 52 53 53 52 51 53 53 55 55 57 57 57 57 57 57 58 59 59 60 60 58 59 59 60 58 58 57 55 53 52 52 51 51 52 53 53 54 56 55 57 58 57 56 56 55 55 54 54 52 51 48 47 44 39 39 37
36 32 29 27 28 26 28 26 23 23 22 22 23 25 23 23 23 23 24 21 22 20 21 23 20 21 21 22 28 36 40 40 43 44 44 44 45 46 47 48 49 51 52 53 53 52 52 52 54 55 56 55 55 55 56 55 57 57 57 58 58 58 59 57 57 56 54 53 51 50 48 49 50 49 51 51 52 54 54 54 55 55 55 54 54 54 53 52 51 50 48 46 41 39 37 36 36
35 33 31 30 30 28 27 27 27 25 25 25 25 25 24 25 21 23 21 22 23 23 23 23 22 22 22 23 26 37 38 39 41 42 43 43 44 45 45 46 48 49 51 52 53 52 51 52 53 53 54 54 55 54 54 54 55 55 56 56 56 56 56 55 54 53 52 50 49 46 46 48 47 48 50 50 49 49 49 48 47 46 46 46 44 42 41 41 38 38 38 38 37 38 37 36 36
35 31 32 31 29 29 27 27 27 27 27 26 27 25 25 23 22 20 21 22 22 21 22 24 23 23 22 21 21 35 36 37 38 40 42 42 43 43 44 45 46 47 49 50 51 52 51 51 52 53 53 53 53 54 54 54 53 54 54 54 54 54 54 53 52 51 49 48 46 44 44 45 45 46 47 46 46 45 45 43 42 41 42 41 39 36 35 35 35 36 36 36 35 35 36 36 36
29 30 32 32 31 29 29 28 29 27 26 26 26 26 26 25 25 21 21 22 23 24 24 24 23 22 21 25 32 33 35 36 36 38 40 41 42 42 42 43 44 45 47 49 50 51 51 50 51 52 52 52 52 53 53 53 53 53 53 52 53 52 52 51 50 49 47 46 44 43 43 42 44 44 44 44 43 42 42 39 37 37 38 35 34 34 35 35 34 34 34 35 34 35 35 35 34
32 27 29 28 31 31 31 30 27 27 26 26 25 28 28 27 26 25 22 23 24 24 25 24 24 23 21 21 27 27 31 33 34 36 37 39 40 41 42 41 42 44 46 47 49 50 50 50 50 51 51 52 51 51 51 51 52 52 52 51 52 51 50 50 49 47 46 43 42 40 41 41 42 42 42 41 40 39 38 36 34 34 34 33 33 33 34 34 33 34 35 35 34 34 34 34 32
32 30 30 30 29 30 30 31 30 30 29 29 30 28 27 27 26 25 24 24 24 24 24 23 22 22 21 21 21 23 27 30 31 32 35 38 39 40 42 42 42 43 43 44 47 48 50 50 50 50 51 51 50 50 50 50 51 51 51 51 50 50 49 49 48 46 43 42 41 41 39 40 40 41 41 39 36 37 35 34 32 32 33 33 33 32 34 33 33 33 33 33 33 33 32 33 32
30 28 30 30 29 29 28 26 27 28 28 29 27 25 25 24 28 23 23 23 23 22 22 22 22 23 22 22 21 21 22 25 29 29 31 35 37 37 38 40 40 39 41 42 45 47 48 49 49 49 50 50 50 49 50 49 50 50 50 50 50 49 48 48 46 44 42 40 39 39 39 38 39 39 39 37 35 35 33 33 32 32 32 32 32 32 33 32 32 32 32 33 33 33 32 33 31
29 31 30 28 27 26 25 24 23 24 25 25 23 22 21 22 22 18 20 21 22 21 21 22 22 21 21 21 21 21 21 22 23 26 31 33 34 37 36 39 40 39 39 40 41 44 47 48 49 49 50 50 50 49 49 49 49 49 49 49 49 48 47 46 44 43 41 39 38 39 38 38 37 38 37 36 34 33 32 32 30 31 32 32 32 33 33 33 32 31 32 31 31 32 32 32 29
24 24 21 21 21 22 22 22 21 22 20 23 22 21 21 22 24 19 18 21 21 20 18 18 19 19 18 18 18 23 21 22 23 31 27 29 32 34 35 36 37 38 38 38 39 41 44 47 48 49 49 50 49 48 49 49 48 48 48 48 47 47 46 44 43 42 41 38 38 38 37 36 36 36 37 35 34 32 31 30 30 31 31 32 32 33 33 33 32 33 33 33 33 32 30 30 29
23 22 20 21 20 19 21 19 19 21 19 22 22 21 19 21 19 19 19 20 19 19 18 18 17 17 19 20 19 20 20 20 23 24 26 26 27 30 32 34 36 36 38 38 38 40 41 44 46 48 49 49 49 48 48 48 47 47 47 47 46 47 44 43 42 41 40 38 38 38 36 36 35 35 35 35 35 32 31 31 30 30 31 32 33 34 35 34 33 32 33 33 31 31 30 29 31
22 21 20 19 18 16 16 19 20 20 19 21 16 12 13 12 17 17 17 19 17 15 15 15 16 15 15 17 17 19 20 22 22 24 23 25 26 27 30 31 35 35 36 37 37 36 38 42 45 47 48 48 49 48 47 47 47 46 46 45 45 44 43 41 41 40 40 38 37 37 36 36 35 34 35 35 33 31 31 30 30 29 31 33 33 33 32 31 31 32 32 31 30 29 29 29 27
19 20 19 20 17 15 17 18 19 17 21 21 16 15 12 12 12 13 15 15 13 11 11 12 13 13 14 19 19 20 19 21 21 20 25 26 24 27 29 29 32 34 36 36 36 36 36 38 42 44 47 48 48 48 48 47 47 46 45 44 43 43 42 41 40 39 39 37 36 36 36 36 35 34 34 34 33 31 30 29 28 28 31 33 31 31 31 30 31 31 31 29 30 28 30 30 29
22 15 19 22 16 17 16 20 18 15 17 21 16 17 13 13 13 14 15 17 18 16 15 15 16 16 16 17 17 17 18 18 21 22 22 22 25 24 27 28 30 32 34 35 36 36 34 35 39 42 45 47 48 48 48 47 46 45 44 44 41 42 40 40 38 37 37 36 36 37 36 36 35 34 34 34 32 31 29 28 27 29 32 31 31 31 30 29 30 32 32 28 25 27 27 28 29
22 16 19 16 20 18 15 15 18 18 18 21 15 12 12 11 14 15 16 15 16 15 15 15 15 16 16 16 16 16 18 18 20 18 20 23 26 23 23 24 29 31 33 34 35 35 35 35 37 39 42 45 46 47 47 46 45 44 42 41 40 40 39 38 37 35 35 35 35 36 36 35 35 35 34 34 32 31 29 28 27 30 31 30 30 30 30 30 30 32 30 30 27 26 30 30 28
19 22 17 22 16 15 13 15 15 23 17 15 17 14 13 13 13 14 15 16 15 15 14 14 15 15 16 17 17 16 17 18 17 17 18 28 23 24 22 29 27 29 31 33 34 34 34 34 35 37 39 43 45 46 46 46 44 43 41 40 39 37 38 37 35 34 34 34 34 35 36 35 35 34 34 34 32 32 31 29 29 30 30 29 30 29 29 30 30 29 27 30 27 28 25 24 26
17 16 18 14 16 17 15 16 13 16 15 14 15 15 15 15 15 15 15 15 15 15 14 15 15 15 16 16 17 16 17 17 17 18 23 24 26 26 24 25 27 28 28 31 33 34 35 34 35 36 37 39 43 44 45 45 43 40 38 38 36 35 36 35 34 33 33 33 33 35 36 35 35 35 34 34 32 31 30 30 29 30 29 28 29 28 29 30 30 28 27 27 29 28 27 28 26
14 18 15 15 15 14 14 16 17 16 14 13 13 12 13 13 13 14 14 14 14 14 15 15 15 15 15 15 16 17 18 17 19 23 32 31 30 29 25 25 27 28 26 27 31 33 34 34 34 35 36 35 40 42 43 42 40 37 35 34 34 34 34 34 34 33 32 32 33 33 35 35 35 34 34 33 32 31 30 29 29 30 28 28 28 28 28 28 29 28 27 29 30 30 29 29 28
18 21 20 15 15 15 16 15 15 15 14 14 14 14 14 14 14 15 15 16 16 16 15 15 16 16 17 17 17 18 18 18 26 31 32 31 33 32 31 29 28 27 27 26 29 32 33 33 34 33 35 35 37 39 41 40 38 37 36 34 33 33 32 33 33 33 32 31 33 33 34 34 35 34 34 33 32 31 30 30 29 29 28 27 27 27 29 29 29 27 28 29 28 26 26 27 29
18 19 19 17 22 16 17 16 17 17 16 15 14 15 16 16 16 17 17 17 16 16 17 17 16 16 17 18 19 20 19 24 29 27 27 32 30 34 33 32 31 27 26 26 28 30 32 33 33 33 34 34 35 37 39 40 39 37 35 34 34 34 32 32 31 32 32 32 32 33 33 34 35 34 33 33 32 31 30 29 29 28 27 26 26 27 28 30 29 27 29 26 29 24 25 29 26
21 18 20 20 18 20 18 18 18 19 18 16 17 16 16 16 17 17 17 17 17 17 17 17 16 17 18 20 22 21 22 23 22 22 26 28 32 32 33 33 31 27 26 27 28 31 32 33 33 33 33 34 35 36 37 38 38 38 37 36 35 34 34 33 32 32 32 31 32 33 33 33 34 34 34 32 32 31 30 29 28 27 27 26 25 26 28 29 28 27 28 22 23 29 29 30 26
19 19 19 18 20 18 18 16 19 18 17 16 17 17 17 17 17 17 18 17 18 19 19 20 19 18 18 18 19 22 22 23 23 22 21 22 32 27 29 31 30 30 29 28 28 30 31 32 32 32 32 33 34 35 36 37 38 37 36 35 35 34 33 34 33 33 33 33 32 33 32 33 33 33 33 33 32 31 30 29 28 27 26 27 26 25 27 28 28 26 28 25 24 21 25 23 30
24 23 21 19 20 19 17 16 19 19 18 20 17 16 16 16 15 15 16 18 18 18 18 18 22 28 25 27 25 25 22 22 23 22 23 23 24 26 28 29 31 30 31 30 30 29 28 32 33 32 32 32 33 34 36 36 36 35 34 34 35 34 34 33 32 31 32 32 31 31 31 32 33 33 33 32 31 31 30 29 29 28 26 26 24 24 25 26 28 26 28 25 24 18 23 27 26
21 24 21 19 18 17 17 19 19 18 19 18 17 14 18 17 20 18 17 15 14 15 16 17 18 26 26 20 21 23 29 28 25 23 24 25 26 27 28 29 29 30 30 31 31 31 30 32 33 33 32 32 33 34 35 35 35 34 32 32 31 31 31 31 30 30 31 31 30 31 31 32 32 32 32 32 32 31 30 30 29 28 27 25 24 23 24 25 27 25 26 25 24 26 20 26 22
20 19 23 20 19 20 20 20 20 18 13 17 19 15 15 16 15 15 14 15 14 15 17 17 17 17 19 22 24 23 23 23 26 26 26 25 26 26 26 27 29 29 29 31 31 31 31 32 33 33 32 32 33 33 35 34 34 34 33 32 32 32 31 31 31 31 31 30 31 30 30 31 32 32 32 32 32 31 30 30 30 28 27 26 24 22 23 25 26 26 25 24 23 24 25 20 21
20 24 24 23 21 22 22 22 21 19 23 23 22 17 15 16 17 15 14 14 15 15 16 17 17 17 18 19 23 24 24 23 25 24 24 25 25 25 24 26 27 28 29 30 31 32 32 31 33 32 32 32 33 33 34 34 33 33 33 33 32 32 32 32 32 31 32 31 31 31 30 30 31 31 31 31 31 31 30 30 29 28 27 26 25 23 23 25 26 26 26 27 25 25 24 19 21
21 24 24 22 20 21 23 22 21 20 18 20 20 22 15 16 19 16 16 15 15 15 15 16 17 17 18 20 22 22 22 23 23 24 24 24 24 25 26 27 28 29 29 31 31 32 33 33 33 32 32 32 33 33 33 34 33 33 33 32 32 33 32 33 32 33 32 32 31 31 30 30 30 31 31 31 31 31 30 29 29 28 27 26 25 24 23 26 26 25 25 25 24 25 23 22 21
23 25 26 25 25 24 22 20 20 18 16 16 16 19 13 16 23 16 17 16 15 16 16 16 16 17 18 17 20 22 20 22 24 24 24 24 25 26 28 27 27 27 28 30 31 31 32 32 32 31 31 32 32 32 33 33 33 33 32 32 32 32 32 31 32 32 32 32 31 31 31 30 30 30 30 31 31 30 30 29 29 28 27 26 26 24 25 26 26 26 26 26 26 25 24 22 20
26 25 23 24 22 22 21 20 21 17 12 18 19 18 16 15 20 16 18 21 16 16 15 17 17 19 17 20 21 23 21 23 23 24 23 24 25 25 26 25 26 26 27 29 30 30 31 31 31 30 30 31 32 33 33 32 32 32 32 32 32 32 32 32 31 31 31 31 30 31 30 30 30 30 30 29 30 30 30 29 29 28 27 26 26 25 24 24 25 25 25 26 26 25 23 24 25
26 24 20 19 21 17 15 11 16 12 13 17 19 18 15 14 17 17 16 15 17 16 16 17 17 17 19 20 20 22 22 23 22 23 24 24 25 25 25 25 25 25 26 27 29 30 30 30 30 30 30 30 31 32 33 33 32 32 32 32 32 32 31 30 30 31 30 31 31 30 30 30 29 30 29 29 29 29 29 29 29 28 27 26 26 25 23 23 24 25 25 25 24 25 25 23 22
24 22 22 15 15 14 10 9 9 10 15 19 18 17 14 14 16 15 17 17 18 18 18 17 17 16 18 19 21 23 24 22 24 25 26 26 26 26 26 25 25 25 25 26 28 29 29 29 29 30 29 30 31 31 32 32 32 32 32 31 31 31 31 30 30 30 31 30 30 30 30 29 29 29 29 28 29 29 29 28 27 27 26 26 26 25 24 24 24 24 24 25 24 25 23 23 17
22 20 21 16 12 9 7 8 6 10 15 17 17 18 15 17 17 18 17 17 18 18 19 21 18 19 22 21 23 23 25 25 26 27 28 28 27 27 27 26 25 25 24 25 27 28 29 28 28 29 29 29 30 31 31 32 32 32 32 31 31 31 31 31 30 30 30 30 31 30 30 29 29 29 29 29 29 29 28 28 28 27 27 26 26 26 25 25 25 23 24 24 24 24 21 20 16
21 25 20 21 18 12 13 11 14 16 20 16 16 16 16 15 19 19 19 18 18 17 17 20 22 21 23 24 24 25 26 27 28 28 28 28 28 28 28 27 26 26 25 25 25 26 28 28 28 27 28 28 29 30 31 31 31 32 32 32 32 31 31 30 30 31 30 30 30 30 30 30 29 29 29 29 29 29 28 28 28 27 27 26 26 26 26 25 25 24 24 24 22 22 21 20 17
24 25 23 17 17 23 16 20 19 19 19 18 14 19 19 17 20 23 23 23 22 18 18 17 18 19 24 25 27 27 27 28 28 28 28 28 28 28 28 28 27 27 27 26 26 26 26 27 28 27 27 27 28 29 30 30 30 30 31 31 31 30 30 31 31 30 30 30 30 30 30 30 29 29 30 30 29 29 29 28 28 27 26 26 26 25 25 23 22 21 21 20 20 22 21 20 18
22 21 17 21 25 21 20 22 22 20 19 18 21 20 23 24 25 25 25 21 17 17 14 22 24 26 27 27 28 27 28 28 28 28 27 27 27 28 28 28 28 28 27 27 27 26 26 26 26 26 27 27 27 28 29 29 30 30 30 30 30 30 30 30 30 30 30 30 30 30 29 30 30 30 30 29 29 29 28 28 27 26 26 25 25 24 22 21 21 20 20 20 20 21 22 21 19
22 19 21 25 30 28 20 17 16 19 17 18 23 21 21 22 23 25 22 21 19 18 22 26 27 28 27 28 28 27 27 27 27 26 27 27 27 27 27 28 28 28 27 27 27 27 27 26 25 25 25 25 26 26 26 28 28 28 29 29 30 30 29 29 30 29 29 29 29 29 29 29 29 29 29 29 29 27 27 27 25 24 23 22 22 22 22 21 21 20 19 20 20 22 21 21 20
22 24 28 20 19 18 20 18 14 17 18 20 22 23 23 24 24 24 22 20 21 22 26 27 27 27 27 27 27 26 26 25 25 25 25 26 26 26 26 27 27 27 27 27 27 28 27 27 26 25 24 24 24 25 25 25 26 27 29 28 27 27 28 28 28 29 28 27 27 27 27 28 28 28 28 27 27 26 25 25 24 23 22 22 21 21 21 20 20 19 18 18 19 21 21 21 20
26 25 23 26 23 22 19 21 20 21 20 21 22 24 23 26 23 21 20 24 24 25 26 26 25 25 25 25 25 25 24 24 23 23 23 24 24 24 25 26 26 27 27 27 27 27 26 26 26 25 24 24 24 23 23 23 23 24 25 25 26 26 26 26 26 26 25 25 25 26 26 26 27 27 26 26 26 25 25 25 24 23 22 21 20 21 21 20 19 18 18 18 19 20 20 20 20
22 21 20 21 20 25 24 23 25 22 21 21 21 19 21 23 22 22 26 26 27 27 26 26 25 24 24 24 24 23 22 22 22 22 22 22 22 23 23 24 25 26 26 27 27 26 26 26 25 25 23 23 23 24 24 23 23 23 23 23 24 25 25 25 25 25 25 24 24 25 24 25 25 25 25 26 26 25 25 24 24 23 22 21 20 20 20 20 19 18 17 18 19 20 20 20 20
25 23 22 22 21 20 20 20 26 25 22 20 19 18 21 26 27 26 26 27 27 28 26 25 25 24 24 24 23 22 21 21 21 21 20 21 21 22 22 23 24 24 25 25 26 26 25 25 25 25 23 23 23 24 25 24 23 22 22 22 23 24 24 24 24 24 24 24 24 23 23 23 24 24 25 25 25 25 25 24 24 23 22 21 20 20 20 19 19 18 17 18 19 20 19 19 20